Theta_e
308 307 309 309 310 312 314 314 314 313 312 311 310 312 313 313 314 314 318 317 321 318 319 320 318 319 319 320 322 321 323 325 334 343 344 345 344 344 343 342 342 341 340 338
311 310 311 311 311 312 313 314 313 313 314 312 311 311 311 311 312 315 316 317 317 316 316 318 318 319 319 320 321 323 327 328 329 333 332 329 326 324 323 323 322 322 321 321
311 313 313 313 314 314 313 313 314 315 315 314 314 313 313 312 315 315 315 316 316 317 318 319 319 319 321 323 327 330 329 329 326 324 324 324 323 322 321 320 320 319 318 317
312 312 314 313 314 314 314 313 314 314 314 313 313 313 315 315 316 316 317 317 317 318 319 320 320 321 321 322 323 324 325 325 324 322 320 317 315 315 314 313 312 312 313 313
314 315 315 314 314 314 315 315 316 315 313 314 314 313 312 314 317 317 316 317 318 320 321 323 323 323 322 322 321 321 320 318 316 315 316 316 315 315 314 314 314 314 314 314
313 315 315 314 315 315 315 313 311 311 310 314 315 313 313 314 316 316 315 317 319 320 321 321 321 321 321 320 320 318 317 317 317 316 317 316 316 316 316 316 316 315 316 316
314 314 314 314 315 316 312 312 312 315 314 314 314 315 313 315 315 315 314 317 319 321 321 320 320 320 319 318 317 317 317 317 317 317 317 317 317 317 317 317 316 316 316 317
314 315 316 318 317 315 315 313 313 317 317 315 316 319 318 315 314 316 317 318 319 320 319 319 319 318 318 317 317 318 318 317 317 317 317 317 317 317 317 317 317 318 319 319
314 316 318 319 318 316 316 317 313 315 315 316 315 316 316 316 315 315 316 317 318 317 317 316 316 316 316 316 315 316 316 316 316 316 316 315 315 315 315 315 316 316 317 317
314 319 319 319 319 318 316 315 317 314 320 321 317 318 318 318 316 315 313 313 315 315 314 315 315 315 315 315 315 314 314 314 314 313 313 313 313 312 311 310 310 310 310 310
314 316 317 317 318 319 319 317 315 315 315 317 317 318 314 315 314 312 311 311 312 313 314 314 314 313 313 312 312 312 312 312 311 310 310 309 309 308 309 311 313 313 313 312
316 314 317 318 316 316 317 317 315 318 320 316 315 316 314 313 312 310 310 311 312 313 313 312 311 311 311 311 310 310 309 308 307 306 306 307 308 311 312 315 314 313 312 310
318 316 318 319 315 316 318 316 313 312 312 316 317 317 314 311 310 310 310 311 312 312 311 311 311 310 310 309 308 308 306 306 305 305 307 309 311 312 314 313 311 310 309 308
315 314 316 318 315 315 320 319 317 315 314 316 315 316 315 313 312 310 309 311 311 311 310 310 310 309 308 307 306 305 304 304 306 309 310 310 310 311 311 310 309 309 308 307
312 317 317 316 317 317 317 318 318 319 319 319 318 314 313 312 311 308 310 311 310 310 310 309 309 307 306 306 304 303 304 307 309 310 310 309 309 309 309 308 308 305 304 304
310 314 314 316 315 315 316 315 316 317 318 317 318 316 312 309 310 310 310 310 310 309 309 308 307 306 305 304 303 305 308 309 309 308 308 308 308 307 307 306 304 304 304 305
311 311 312 316 315 315 315 315 314 315 315 317 319 317 309 309 309 309 309 309 309 308 308 307 306 305 303 304 307 308 307 306 305 305 305 306 305 304 304 303 303 305 306 305
310 309 308 312 313 315 311 312 313 314 314 312 314 312 309 309 310 309 309 309 308 307 307 306 304 303 305 306 306 304 304 304 303 303 304 304 303 302 302 304 306 306 306 305
308 308 313 312 314 312 313 317 316 316 315 311 309 309 309 309 309 308 308 308 306 306 305 303 304 306 306 305 304 303 303 302 302 304 303 303 302 303 305 307 306 307 304 303
310 309 308 315 316 315 311 314 315 315 315 310 310 309 309 309 312 307 307 307 307 305 303 305 305 305 304 303 302 301 301 301 302 304 304 304 303 305 307 307 307 303 303 301
312 314 315 313 308 310 310 313 315 313 312 311 311 310 310 310 309 307 307 306 303 303 305 304 303 302 301 301 300 299 299 300 302 304 304 304 306 307 308 307 305 303 301 300
314 315 315 314 312 311 313 316 316 310 310 311 310 309 310 308 307 306 304 302 303 302 302 302 303 302 301 299 297 298 299 301 303 303 304 306 306 307 308 305 304 303 301 299
315 310 309 310 309 307 314 313 314 312 310 309 309 307 308 306 304 302 302 301 300 300 301 301 301 301 299 298 296 297 300 301 302 303 306 306 307 308 307 306 305 303 301 299
315 313 313 314 311 311 314 312 313 310 310 309 311 310 306 304 302 302 300 300 301 300 301 301 300 299 299 297 297 297 299 300 303 304 305 306 307 309 308 307 306 303 302 300
312 314 314 313 312 314 314 313 310 309 308 310 307 305 303 301 302 301 299 297 298 298 301 300 299 297 297 297 297 297 298 300 302 303 304 306 306 308 308 307 306 305 303 301
307 307 311 310 311 312 312 314 313 310 307 307 306 304 301 301 300 299 296 295 296 296 300 301 299 297 296 297 297 297 298 299 301 303 302 303 305 307 309 308 307 306 303 302
Wind_Speed
10 4 6 13 13 4 3 3 5 5 6 7 10 6 11 16 19 14 27 27 39 38 42 41 27 20 17 15 16 15 16 17 13 14 16 15 13 11 8 8 9 11 14 16
2 7 10 8 6 6 6 4 7 9 2 4 8 10 10 5 11 20 28 28 26 23 31 23 18 18 19 22 23 23 21 20 18 16 16 13 9 6 5 5 8 11 13 15
7 7 5 6 4 5 6 6 4 6 2 2 2 5 4 5 4 8 6 9 13 19 20 19 20 22 26 26 26 22 19 18 16 13 9 6 5 6 8 10 13 15 17 19
6 6 6 5 6 7 7 7 6 5 3 3 2 3 4 3 3 2 4 6 12 15 16 19 21 22 23 24 24 21 17 13 9 6 3 4 6 7 11 12 14 16 18 21
6 3 2 4 7 7 8 4 3 1 4 3 5 4 5 2 2 1 3 3 14 21 24 25 26 25 24 21 17 15 11 7 4 3 4 8 10 12 14 16 18 19 19 21
7 3 3 6 4 5 6 6 8 4 3 2 2 5 5 2 1 2 2 9 16 21 23 23 22 21 18 15 11 8 7 9 8 5 7 8 10 12 15 17 20 21 23 24
2 4 4 6 3 1 5 6 2 2 3 5 4 2 7 2 4 5 8 20 23 26 26 23 19 16 15 13 10 10 11 10 8 11 14 15 16 18 21 23 27 29 31 31
6 3 6 4 6 7 3 5 6 6 4 4 3 4 5 5 8 8 21 25 24 25 21 18 15 13 12 12 13 13 12 13 14 14 15 17 19 21 23 26 29 32 34 36
4 2 2 4 1 4 4 2 4 7 3 3 3 4 5 4 5 11 16 20 18 15 13 11 10 11 13 12 11 11 11 12 13 15 17 18 19 22 25 27 29 32 34 36
4 3 1 3 1 5 3 6 3 3 5 4 4 3 4 3 6 5 6 5 4 6 7 10 9 11 11 10 8 6 6 10 13 17 20 24 28 32 36 39 41 43 44 44
5 3 3 1 1 5 1 2 5 5 4 4 2 5 4 7 5 7 6 4 6 9 11 11 11 10 7 3 3 7 11 16 21 25 29 34 37 41 43 45 45 44 43 42
2 4 4 3 2 2 1 3 4 4 5 2 3 5 4 8 6 11 11 16 16 16 15 11 7 3 3 6 10 15 19 23 28 32 36 40 42 42 42 40 38 36 35 34
5 1 3 3 4 4 1 1 4 5 3 6 5 4 0 7 5 10 19 16 15 12 8 5 1 5 10 14 19 23 26 30 34 38 41 43 42 40 37 32 29 29 31 33
5 4 4 6 4 4 4 5 4 5 3 3 5 3 2 3 5 5 12 14 11 5 2 4 8 12 17 21 25 29 32 35 39 41 41 39 36 34 31 29 28 31 32 33
3 3 2 1 2 2 1 3 5 6 4 5 4 6 4 3 6 7 10 8 4 1 3 8 13 18 22 26 30 34 37 40 40 39 37 33 31 31 30 29 28 25 25 27
4 3 2 1 1 2 4 6 7 6 4 5 6 5 5 5 12 10 9 5 2 2 8 13 17 21 27 31 35 37 40 39 36 33 30 28 30 29 27 25 21 23 28 32
3 4 3 2 3 3 6 11 11 6 6 8 8 9 6 4 7 10 5 3 1 7 13 17 22 27 31 34 36 37 37 35 34 31 27 28 28 29 26 23 26 30 36 37
4 4 2 2 3 2 5 4 5 5 1 4 4 4 8 7 10 9 4 1 6 11 16 22 26 30 32 34 34 32 33 31 29 27 26 27 27 27 24 27 31 36 38 40
2 4 3 4 3 6 4 2 2 3 2 2 7 7 10 10 10 2 3 5 9 16 21 25 28 30 33 31 30 31 30 27 25 24 27 28 24 23 26 31 35 38 40 39
2 4 4 2 2 3 4 3 4 1 2 5 11 6 8 9 2 2 4 10 16 20 23 26 28 30 29 28 28 29 28 26 23 24 27 20 21 25 27 32 34 37 35 40
4 2 4 3 2 6 6 4 6 5 5 7 8 12 10 3 4 2 7 13 17 20 22 24 26 27 27 27 26 27 27 25 23 24 21 19 21 25 30 33 32 31 35 38
5 5 3 3 2 6 1 3 2 3 7 13 11 9 10 7 3 4 10 14 17 20 22 24 26 28 28 26 24 26 26 24 21 23 18 19 22 26 32 27 31 31 34 35
2 5 4 6 5 3 2 3 4 7 13 9 11 7 8 4 2 7 10 14 17 21 23 24 25 27 28 26 23 25 24 21 23 21 18 22 24 27 30 26 29 32 33 30
3 5 1 1 2 4 5 4 8 10 11 12 6 1 1 2 5 8 11 15 19 21 24 25 27 28 29 27 24 22 22 22 23 22 20 23 23 28 30 25 26 28 30 28
1 4 4 2 4 6 6 9 9 13 14 8 10 7 5 5 7 10 14 16 18 22 25 26 27 28 29 27 25 22 21 22 22 22 22 22 22 28 28 24 25 27 28 24
4 5 4 5 11 8 5 13 12 12 14 11 6 6 6 7 9 11 14 16 18 21 25 28 28 28 28 26 26 25 22 21 22 23 22 23 23 28 30 27 23 22 23 22
Wind_Direction
174 152 198 219 220 250 239 261 278 254 215 138 218 222 224 230 204 194 195 206 205 225 228 236 224 227 215 196 188 185 188 197 200 200 213 226 237 235 251 265 264 272 284 289
141 220 218 216 219 217 240 267 271 276 275 154 152 232 252 235 210 198 205 216 229 222 216 211 201 201 202 201 196 191 192 192 195 199 196 195 203 220 254 278 287 289 289 289
183 236 136 179 235 213 226 194 238 248 341 103 66 321 334 229 152 156 176 176 186 192 188 193 190 190 190 192 191 191 187 184 179 176 175 197 244 270 281 284 286 290 293 294
219 241 242 291 251 190 252 196 218 261 144 210 56 260 310 347 108 83 147 155 175 178 189 188 185 179 178 173 173 177 173 169 166 171 215 261 286 297 304 304 305 301 300 301
231 210 221 239 225 170 229 154 150 97 108 88 333 77 250 326 112 318 346 140 174 179 177 163 154 149 148 142 144 145 145 143 120 40 339 336 329 322 315 306 305 305 303 302
216 235 206 222 239 201 151 75 52 50 71 77 224 126 298 269 204 178 112 154 166 157 147 142 142 146 146 145 142 144 161 181 195 220 250 258 266 277 284 287 286 285 283 284
217 224 235 210 244 102 76 85 17 353 7 216 340 66 234 287 304 216 153 153 151 149 147 149 152 157 163 166 176 195 206 218 231 248 256 262 267 272 274 274 274 274 276 274
175 246 187 194 198 187 153 155 151 192 191 230 3 225 250 288 275 208 159 153 154 155 155 160 169 177 183 192 208 221 237 249 258 261 266 270 272 275 278 278 277 276 276 274
160 272 309 51 17 130 188 124 160 104 32 77 229 272 322 30 61 133 152 158 160 165 170 175 188 197 206 218 227 230 235 244 257 267 271 278 284 287 288 287 285 283 280 278
237 141 103 310 347 53 146 152 74 14 140 220 282 270 231 173 163 151 65 77 136 169 173 172 169 170 175 176 185 207 245 270 279 287 291 291 292 293 292 290 287 284 281 277
151 125 258 56 184 173 68 95 59 105 124 156 174 255 225 209 158 135 144 126 151 145 149 143 139 138 142 159 263 288 294 298 300 301 300 299 298 298 298 297 296 294 291 288
63 140 163 171 55 2 17 160 130 145 216 213 155 258 335 147 146 140 138 140 141 144 141 134 128 103 329 312 308 305 304 304 304 303 302 303 304 303 302 300 300 299 300 298
171 63 110 6 354 17 185 179 109 109 73 190 159 257 99 82 91 153 146 152 145 140 136 145 228 321 319 315 312 311 310 308 307 307 308 309 308 306 304 302 301 303 303 301
103 141 161 192 193 153 164 158 150 133 142 188 216 240 276 90 157 147 151 146 139 127 49 344 331 324 318 317 315 312 310 311 311 312 311 309 310 309 306 303 306 306 304 304
83 132 132 143 114 103 173 174 185 191 183 181 212 207 237 234 185 160 134 131 125 83 343 329 326 322 317 316 314 314 314 313 313 311 310 312 313 312 307 304 302 304 310 313
2 140 111 119 100 238 252 244 234 216 211 237 231 248 216 135 135 150 148 142 120 332 332 325 322 320 318 319 317 314 312 313 312 312 311 313 319 318 314 309 308 310 310 309
80 125 94 243 356 7 301 232 221 201 201 190 208 220 162 162 151 163 157 140 26 330 328 325 323 320 317 315 314 315 314 313 313 313 312 315 316 315 312 308 314 317 316 310
119 96 85 123 14 224 239 288 220 194 256 284 224 176 170 155 159 150 148 111 329 329 325 321 319 316 315 316 317 314 312 314 313 312 315 316 313 312 310 315 316 314 312 309
112 114 132 142 217 296 315 27 107 159 291 307 126 104 97 108 132 133 151 325 333 329 324 320 318 317 317 319 317 313 313 315 314 317 315 315 314 314 322 323 316 314 311 311
104 96 110 168 217 233 241 311 335 160 298 179 127 122 121 117 34 279 280 322 322 322 320 320 322 322 320 321 319 317 317 315 314 315 314 313 317 323 320 315 315 318 316 314
131 117 163 169 199 285 253 289 329 96 233 132 129 137 137 106 168 214 307 316 322 323 326 329 329 328 328 326 321 316 318 318 314 312 308 317 321 316 315 314 321 313 320 312
150 161 175 141 165 267 11 333 190 203 136 139 129 129 119 137 154 312 323 326 334 341 342 341 336 334 336 334 325 318 317 318 315 310 310 310 312 318 322 318 323 319 322 322
165 175 182 173 210 237 323 212 137 137 138 132 121 119 120 133 2 345 348 357 360 359 354 349 342 338 341 337 331 323 322 321 320 314 307 311 317 326 329 318 326 323 323 323
208 167 115 60 1 247 201 155 161 147 137 124 95 122 147 72 25 14 14 5 360 358 355 351 348 346 341 341 338 329 324 321 319 312 308 311 325 331 335 321 319 319 327 327
24 137 125 275 301 320 231 196 155 148 148 160 137 125 88 52 42 29 16 6 2 360 358 358 351 346 343 344 343 337 331 325 321 315 309 312 325 327 330 331 330 326 329 328
202 186 164 220 211 187 238 194 187 164 151 138 123 97 69 49 34 18 7 358 354 356 357 358 356 351 348 350 351 347 340 329 324 316 314 319 322 324 334 339 331 335 336 341